Regional Weather Roundup
Issued by NWS Wakefield, VA

Home | Current Version | Previous Version | Graphics & Text | Print | Product List | Glossary On
Versions: 1 2 3 4 5 6 7 8 9 10 11 12 13 14 15 16 17 18 19 20 21 22 23 24 25 26 27
000
ASUS41 KAKQ 222014
RWRAKQ

REGIONAL WEATHER ROUNDUP
NATIONAL WEATHER SERVICE WAKEFIELD VA
400 PM EDT WED MAR 22 2017

Note: "fair" indicates few or no clouds below 12,000 feet with no
significant weather and/or obstructions to visibility. * = Denotes
station may not report precipitation (e.g., rain,snow,etc.),
thunder or fog.

VAZ042-051-052>054-056-222100-
NORTHERN VIRGINIA

CITY           SKY/WX    TMP DP  RH WIND       PRES   REMARKS
WASH NATIONAL  SUNNY     49  11  21 NW17G26   30.28R
DULLES         SUNNY     47   8  20 NW17G25   30.28S
FORT BELVOIR   SUNNY     48   4  17 NW15G25   30.28R
QUANTICO       SUNNY     49  11  21 N25G37    30.30R
FREDERICKSBRG* SUNNY     49  17  27 NW17G25   30.27S
STAFFORD*      SUNNY     48  12  23 NW16G36   30.32R
WARRENTON      SUNNY     50  -1  12 N23       30.28R
CULPEPER*      SUNNY     49  11  22 NW14G25   30.30R
MANASSAS*      SUNNY     48  13  24 NW16G23   30.29S
LEESBURG*      SUNNY     46  18  31 N17G26    30.30R
WINCHESTER     SUNNY     43   9  24 NW22G31   30.29R
FRONT ROYAL*   CLEAR     45  10  24 N13G22    30.28R
LURAY*         CLEAR     46  19  34 NW16G22   30.29R
$$

VAZ048-049-060>072-079>083-222100-
CENTRAL AND SOUTH CENTRAL VIRGINIA

CITY           SKY/WX    TMP DP  RH WIND       PRES   REMARKS
RICHMOND       MOSUNNY   52  14  22 N18G31    30.25S
CHESTERFIELD*  FAIR      52  10  19 N16G28    30.26S
PETERSBURG*    SUNNY     50   6  16 N20G29    30.25R
HANOVER        SUNNY     50  14  23 NW13G25   30.28S
TAPPAHANNOCK*  SUNNY     49  -5  10 N14G23    30.26S
QUINTON*       FAIR      50  12  21 N15G23    30.24S
CHARLOTTSVILLE SUNNY     51   9  18 N12G20    30.28R
GORDONSVILLE*  CLEAR     49  10  20 N13G20    30.27S
ORANGE*        SUNNY     46  10  23 N10       30.29S
LOUISA*        SUNNY     54  18  24 NW9G17    30.26S
BUMPASS*       FAIR      49  10  21 N7G16     30.27S
FARMVILLE*     SUNNY     54   8  15 N13G22    30.22F
CREWE*         FAIR      53  12  20 NW15G25   30.22R
FORT PICKETT*  FAIR      54  -6   8 N12G25    30.22S
CHASE CITY*    FAIR      55   5  13 N10G18    30.21S
CLARKSVILLE*   FAIR      55  18  22 N12G21    30.21R
SOUTH HILL*    SUNNY     54  21  28 N17G23    30.26S
LAWRENCEVILLE* FAIR      53   8  16 N9G16     30.22R
EMPORIA*       SUNNY     52  14  22 NW17G24   30.24R
$$

VAZ088>098-222100-
SOUTHEAST VIRGINIA

CITY           SKY/WX    TMP DP  RH WIND       PRES   REMARKS
NORFOLK        SUNNY     48  27  44 N20G29    30.23R
VIRGINIA BEACH MOSUNNY   49  22  34 N18G29    30.22R
NORFOLK NAVAL  MOSUNNY   51  28  41 NE17G28   30.24R
WEST POINT*    SUNNY     49  10  21 N13G24    30.26S
SALUDA*        FAIR      48  19  31 NW13G21   30.24R
NEWPORT NEWS   SUNNY     51  13  21 N22G30    30.23R
LANGLEY AFB    SUNNY     51  18  27 N17G26    30.22R
FORT EUSTIS    SUNNY     53  16  23 N14G23    30.21R
WILLIAMSBURG*  SUNNY     55  21  26 N14G23    30.24R
HR EXEC AP*    FAIR      54  18  24 N10G17    30.21R
FRANKLIN*      SUNNY     52  13  21 N16G24    30.23R
US460-WAKEFLD  SUNNY     52  12  20 N12G21    30.23R
$$

VAZ020-022-025-037-045-222100-
WEST CENTRAL AND SOUTHWEST VIRGINIA

CITY           SKY/WX    TMP DP  RH WIND       PRES   REMARKS
STAUNTON*      SUNNY     47  12  24 N12G18    30.28S
WAYNESBORO*    CLEAR     47  14  27 NE10G18   30.25S
HOT SPRINGS VA SUNNY     37   0  20 N13G18    30.20S
LYNCHBURG      SUNNY     54   6  14 VRB7G21   30.23S
DANVILLE       SUNNY     59  18  20 NE15G21   30.20S
SOUTH BOSTON*  FAIR      58  11  15 NE12G20   30.21R
MARTINSVILLE   SUNNY     58  16  19 N10G20    30.22S
ROANOKE        SUNNY     57  15  19 VRB5      30.24S
BLACKSBURG     SUNNY     49  16  26 NE10G18   30.26S
DUBLIN*        SUNNY     49  17  27 N12G18    30.26S
MARION*        SUNNY     51  12  21 NW8       30.25S
HILLSVILLE*    SUNNY     49  13  24 N13G23    30.20S
RICHLANDS*     FAIR      46  12  25 CALM      30.26S
WISE*          SUNNY     46  18  31 CALM      30.28S
ABINGDON*      SUNNY     53  12  20 E7        30.25S
$$

MDZ021>025-VAZ099-100-222100-
SOUTHERN MARYLAND AND THE DELMARVA PENINSULA

CITY           SKY/WX    TMP DP  RH WIND       PRES   REMARKS
PATUXENT RIVER SUNNY     49  19  30 N17       30.24S
BAY BRIDGE APT SUNNY     45  10  24 N18G26    30.27R
LEONARDTOWN    SUNNY     46  12  25 N9G16     30.26S
DOVER          SUNNY     43  10  25 NW21G36   30.24R
GEORGETOWN     SUNNY     47   9  21 NW10G22   30.22S
EASTON         NOT AVBL
CAMBRIDGE      SUNNY     45   7  21 N17G28    30.25S
SALISBURY      SUNNY     48  11  22 N16G29    30.22R
OCEAN CITY     SUNNY     48  13  24 N24       30.21R
WALLOPS ISLAND SUNNY     47  14  26 N21G30    30.21R
ACCOMACK*      SUNNY     47  20  34 N13G30    30.23R
$$

NCZ012>017-030>032-222100-
NORTH CENTRAL AND EASTERN NORTH CAROLINA

CITY           SKY/WX    TMP DP  RH WIND       PRES   REMARKS
ROANOKE RAPIDS FAIR      55  16  21 N21G28    30.21R
RALEIGH        PTSUNNY   62  23  22 N9G20     30.16R
ELIZABETH CITY SUNNY     51  26  37 N18       30.21R
AHOSKIE*       NOT AVBL
EDENTON*       SUNNY     57  18  21 N15G22    30.20R
CURRITUCK*     SUNNY     50  25  36 N20G25    30.22R
KILL DEVIL HLS NOT AVBL
MANTEO         SUNNY     48  24  39 N26G32    30.21R
CAPE HATTERAS  PTSUNNY   50  32  50 N16G31    30.18R
TARBORO*       NOT AVBL
GOLDSBORO      PTSUNNY   63  28  26 N10G21    30.14R
WASHINGTON     SUNNY     57  20  23 N21G26    30.18R
GREENVILLE     SUNNY     59  23  25 N18G26    30.19R
NEW BERN       PTSUNNY   61  36  39 N15       30.16R
WILMINGTON     PTSUNNY   65  46  50 NE9       30.12R
$$

VAZ048-222100-
ELSEWHERE

CITY           SKY/WX    TMP DP  RH WIND       PRES   REMARKS
HARRISBURG PA  SUNNY     42   1  18 N17G28    30.29R
BALTIMORE      SUNNY     46   7  20 NW18G25   30.26R
ANNAPOLIS      SUNNY     46  12  25 NW12      30.26R
ANDREWS AFB    SUNNY     46   8  21 N20G30    30.26R
PHILADELPHIA   SUNNY     40   7  25 N21       30.27R
HENDERSON NC   MOSUNNY   55  15  21 NE10G22   30.20R
GREENSBORO     PTSUNNY   60  13  15 N12G18    30.18S
ROCKY MOUNT    MOSUNNY   59  18  20 N21G28    30.18R
$$

VAZ100-222100-
MARINE

STATION/POSITION TIME  TEMP    WIND        PRES    WAVE   SWELL
                       AIR SEA DIR/SP/G            HT/PER HT/PER
                 (UTC) (F)     (DEG/KT/KT) (MB)    (FT/S) (FT/S)
CAPE MAY NJ      1948   40 44  330/ 21/ 28 1023.1R
LEWES DE         1948   40 45  360/ 26/ 31 1023.8R
OCEAN-CITY-INLET 1948   42 44   20/ 16/ 22 1023.2R
WACHAPREAGUE VA  1948   47 52  350/  7/ 18 1023.1R
THOMAS POINT MD  2000   42 44  360/ 19/ 21   N/A
GOOSES REEF MD   2000   44 44   30/ 17/ 19 1025.0    2/ 3
COVE POINT MD    1948   42      30/ 19/ 22 1024.9R
SOLOMONS ISLAND  1948   46 46  350/ 17/ 23   N/A
BISHOPS HEAD MD  1948   46 52  350/ 14/ 22 1024.3R
PINEY POINT MD   1948          340/ 23/ 27   N/A
POTOMAC MD       2000   44 46   20/ 17/ 23 1023.6    2/ 3
CAMBRIDGE MD     1948   43 44  350/ 21/ 25 1023.7R
LEWISETTA VA     1948   46 49  340/ 14/ 21 1024.1R
RAPPAHANNOCK LGT 1948          350/ 26/ 29 1024.0R
STINGRAY PT      1950   46      20/ 17/ 23 1023.7R
YORK RVR RNG VA  1948   47     350/ 20/ 23 1023.0R
YORKTOWN VA      1948   47 49  360/ 18/ 22 1023.6R
JAMESTOWN VA     2000   48 50  340/ 16/ 19   N/A     1/ 2
DOMINION TERM VA 1948   49     350/ 10/ 18 1023.4R
KIPTOPEKE VA     1948      47   10/ 19/ 26   N/A
CHES BAY BRIDGE  1948   44 47   20/ 24/ 30 1023.5R
CAPE HENRY VA    1948   44     350/ 26/ 30   N/A
WILLOUBY STN VA  1948   47      20/ 18/ 24 1024.4R
S CRANEY ISL VA  1948   46      30/ 16/ 21 1023.0R
CAPE HENRY BUOY  1942      46                N/A     6/ 5   2/11
CAPE CHARLES BUO 1951      46                N/A     5/ 5   2/11
OFFSHORE WE BUOY 1951      46                N/A     7/ 6   2/11
64NM E OF VA BCH 1950   44 49   10/ 21/ 25 1021.7R   8/ 6   3/ 9
DUCK PIER NC     1948   45 49   10/ 27/ 32 1021.8R
44100 DUCK FRF   1935      47                N/A     8/ 6   2/11
44056 DUCK FRF   1930      47                N/A     7/ 6   2/11
OREGON INLET NC  1948          350/ 22/ 31   N/A
HATTERAS NC      1948   48 56   10/ 26/ 33 1021.4R
DIAMOND SHLS NC  1950   49 72   10/ 29/ 35 1021.0R  10/ 8   3/11
CAPE LOOKOUT NC  2000   53      40/ 25/ 28 1021.1R
$$




USA.gov is the U.S. government's official web portal to all federal, state and local government web resources and services.